Preview of NWS' New Version of Forecast
This preview is not operational and should not be used for support decisions.

Regional Weather Roundup (RWR)

Issued by National Weather Service (NWS)

                            
000
ASUS42 KTBW 220317
RWRFL 
FLORIDA REGIONAL WEATHER ROUNDUP
NATIONAL WEATHER SERVICE TAMPA BAY RUSKIN FL
1100 PM EDT SUN JUL 21 2019

NOTE: "FAIR" INDICATES FEW OR NO CLOUDS BELOW 12,000 FEET WITH NO
SIGNIFICANT WEATHER AND/OR OBSTRUCTIONS TO VISIBILITY.

FLZ001>010-012>015-112-114-115-220400-
PANHANDLE FLORIDA
  
CITY           SKY/WX    TMP DP  RH WIND       PRES   REMARKS
PENSACOLA      FAIR      78  75  90 S3        30.03S                  
PENSACOLA NAS  FAIR      78  74  87 SW3       30.02                   
MILTON NAS     FAIR      77  73  87 S6          N/A                   
CRESTVIEW      FAIR      78  72  81 CALM      30.05S                  
DUKE FIELD     FAIR      77  73  85 CALM      30.03F                  
VALPARAISO     FAIR      81  72  73 S6        30.02F HAZE             
MARY ESTHER    PTCLDY    81  73  77 CALM      30.02S                  
TRI COUNTY     FAIR      77  76  96 CALM      30.06R                  
PANAMA CITY    FAIR      78  74  87 CALM      30.04R                  
TYNDALL AFB    MOCLDY    81  74  79 S3        30.04R                  
APALACHICOLA   FAIR      79  73  82 CALM      30.05R                  

STATION/POSITION SKY/WX   TEMP    WIND        PRES    WAVE   SWELL
                          AIR SEA DIR/SP/G            HT/PER HT/PER
                          (F)     (DEG/KT/KT) (MB)    (FT/S) (FT/S)
30.1N   87.6W              81 86  210/  8/ 10 1016.6S   2/ 4   2/ 5
29.2N   88.2W              81 85  150/  2/  4 1016.9
28.8N   86.0W                 86   CALM  /  2 1017.5F   1/ 5   2/ 5
PANAMA CITY BEAC           83 87  210/  6/  7 1017.8R
TOWER C                    83     160/  4/  5 1017.7S
28.5N   84.5W              83     160/  6/  8 1018.1R   1/ 5   2/ 5

$$
FLZ011-016>038-118-127-128-134-139-239-220400-
NORTH FLORIDA
  
CITY           SKY/WX    TMP DP  RH WIND       PRES   REMARKS
MARIANNA       HVY RAIN  74  74 100 NW12      30.04S FOG              
TALLAHASSEE    FAIR      78  75  90 CALM      30.04F                  
PERRY          FAIR      73  71  95 E3        30.06R                  
LIVE OAK       CLEAR     73  73 100 CALM      30.06F                  
CROSS CITY     FAIR      69  68  95 CALM      30.07R                  
LAKE CITY      FAIR      72  70  94 CALM      30.06F                  
GAINESVILLE    FAIR      72  69  90 NE3       30.09S                  
WILLISTON      FAIR      70  69  96 E3        30.08R                  
PALATKA        MOCLDY    73  72  94 CALM      30.08R                  
MAYPORT NAS    FAIR      78  71  79 SW6       30.07S                  
JACKSONVILLE   MOCLDY    75  72  90 SE5       30.06F                  
JAX NAS        MOCLDY    78  69  73 CALM      30.07F                  
JAX CECIL      NOT AVBL                                               
FERNANDINA BEA FAIR      77  73  88 NW3       30.07F                  
ST AUGUSTINE   FAIR      78  71  79 W3        30.08F                  
PALM COAST     FAIR      75  69  81 N3        30.07S                  

STATION/POSITION SKY/WX   TEMP    WIND        PRES    WAVE   SWELL
                          AIR SEA DIR/SP/G            HT/PER HT/PER
                          (F)     (DEG/KT/KT) (MB)    (FT/S) (FT/S)
SHELL POINT      NOT AVBL
KEATON BEACH               74      70/  8/ 10 1017.9R
CEDAR KEY                  77      90/ 18/ 20 1018.1R
FERNANDINA                        240/  5/  7   N/A
30.7N   81.3W                 84                N/A     2/ 8
MAYPORT                    81 85  230/  7/  8 1018.9
31.4N   80.9W              83 83  220/ 14/ 16 1017.8R   3/ 4   2/27
ST AUGUSTINE               78 76     CALM     1018.6F

$$
FLZ040-043>046-052-053-057-058-063-144-220400-
INTERIOR CENTRAL FLORIDA
  
CITY           SKY/WX    TMP DP  RH WIND       PRES   REMARKS
OCALA          FAIR      72  71  97 NE6       30.08R                  
LEESBURG       FAIR      75  72  90 NE5       30.08R                  
SANFORD        FAIR      75  71  87 NE5       30.07R                  
ORLANDO EXEC   FAIR      76  70  82 E7        30.07R                  
ORLANDO INTL   CLOUDY    76  70  82 VRB6      30.06S                  
WINTER HAVEN   FAIR      75  73  93 NE3       30.07F                  
LAKELAND       FAIR      72  72 100 CALM      30.06S                  
BARTOW           N/A     73  73 100 CALM      30.06S                  
SEBRING        FAIR      75  73  92 CALM      30.06F                  
OKEECHOBEE     FAIR      73  72  94 CALM      30.06F                  

$$
FLZ041-047-054-059-064-141-147-220400-
EAST CENTRAL FLORIDA
  
CITY           SKY/WX    TMP DP  RH WIND       PRES   REMARKS
DAYTONA BEACH  CLOUDY    75  72  90 NW3       30.08R                  
DELAND         FAIR      72  70  94 NE3       30.07S                  
JFK SPACE CTR  MOCLDY    76  65  69 CALM      30.06S                  
CAPE CANAVERAL PTCLDY    79  58  47 SE5       30.05S                  
PATRICK AFB    FAIR      82  80  92 SE5       30.06S                  
MELBOURNE      FAIR      79  74  84 NW3       30.06S                  
VERO BEACH     FAIR      78  72  81 SW7       30.06F                  
FT PIERCE      FAIR      77  70  79 SW3       30.06S                  
STUART         FAIR      79  72  78 W5        30.08F                  

STATION/POSITION SKY/WX   TEMP    WIND        PRES    WAVE   SWELL
                          AIR SEA DIR/SP/G            HT/PER HT/PER
                          (F)     (DEG/KT/KT) (MB)    (FT/S) (FT/S)
28.5N   80.2W              83 84  140/  8/ 10 1018.0S   1/ 8   2/ 8
28.9N   78.5W              85 86  110/  8/ 10 1018.9    2/ 8   2/ 8
TRIDENT PIER               81 84  110/  3/  3 1019.4R
28.4N   80.5W                 83                N/A     1/ 8
27.5N   80.2W                 83                N/A     1/ 8

$$
FLZ050-056-061-142-242-148-248-149-249-151-251-155-255-
160-260-220400-
WEST CENTRAL FLORIDA
  
CITY           SKY/WX    TMP DP  RH WIND       PRES   REMARKS
CRYSTAL RIVER  FAIR      72  70  94 E3        30.07R                  
INVERNESS      FAIR      72  72 100 CALM      30.08R                  
BROOKSVILLE    FAIR      72  71  97 NE5       30.07R                  
CLEARWATER AIR FAIR      77  72  83 S3        30.04S                  
ST PETE CLEARW FAIR      75  72  90 CALM      30.04F                  
TAMPA INTL     MOCLDY    77  71  82 SE3       30.05F                  
TAMPA EXEC     FAIR      72  72 100 CALM      30.06S                  
PLANT CITY     FAIR     N/A N/A N/A MISG      30.07S                  
MACDILL AFB    FAIR      78  71  81 CALM      30.04F                  
PETER O KNIGHT CLOUDY   N/A N/A N/A CALM      30.05S                  
ST PETERSBURG  FAIR      79  72  79 S12       30.03S                  
SARASOTA       FAIR      75  72  90 SE5       30.03F                  
VENICE         FAIR      77  73  88 E5        30.04F                  

STATION/POSITION SKY/WX   TEMP    WIND        PRES    WAVE   SWELL
                          AIR SEA DIR/SP/G            HT/PER HT/PER
                          (F)     (DEG/KT/KT) (MB)    (FT/S) (FT/S)
27.3N   84.2W                 87                N/A     2/ 5
CLEARWATER BEACH           79 87  150/  7/  9 1017.5F
MIDDLE TAMPA BAY           77     170/  6/  7 1017.8S
VENICE                     76 87   90/  4/  6 1017.1F

$$
FLZ066-069-070-075>078-162-262-165-265-220400-
SOUTHWEST FLORIDA AND KEYS
  
CITY           SKY/WX    TMP DP  RH WIND       PRES   REMARKS
PUNTA GORDA    FAIR      74  74 100 E6        30.05F                  
FT MYERS       FAIR      74  73  97 E5        30.04F                  
SOUTHWEST INTL FAIR      74  72  93 E5        30.04F                  
MARCO ISLAND   FAIR      74  73  97 MISG      30.07S                  
IMMOKALEE      CLOUDY    73  72  94 CALM      30.04F                  
MARATHON       FAIR      85  75  72 E6        30.04R                  
KEY WEST NAS   FAIR      84  70  62 E8        30.04R                  
KEY WEST INTL  FAIR      83  71  67 E10       30.04S                  

STATION/POSITION SKY/WX   TEMP    WIND        PRES    WAVE   SWELL
                          AIR SEA DIR/SP/G            HT/PER HT/PER
                          (F)     (DEG/KT/KT) (MB)    (FT/S) (FT/S)
NAPLES                     75 88              1017.6F
26.0N   85.6W              84 86  100/  6/  8 1017.6R   2/ 5   2/ 5
DRY TORTUGAS               84     110/ 10/ 11 1017.0R
SAND KEY                   83     110/ 10/ 12 1016.0R
SOMBRERO KEY               85     100/ 10/ 13 1017.4R
LONG KEY                   85                 1016.8

$$
FLZ067-068-071>074-168-172>174-220400-
SOUTHEAST FLORIDA 
  
CITY           SKY/WX    TMP DP  RH WIND       PRES   REMARKS
W PALM BEACH   MOCLDY    78  72  81 W5        30.07F                  
BOCA RATON     PTCLDY    79  72  78 N6        30.07S                  
FT LAUDER-EXEC FAIR      79  71  76 CALM      30.07R                  
FT LAUDERDALE  FAIR      80  73  79 N8        30.06S                  
POMPANO BEACH  FAIR      81  70  69 N7        30.07S                  
PEMBROKE PINES FAIR      80  72  76 N6        30.08S                  
OPA LOCKA      FAIR      81  70  69 N6        30.06F                  
MIAMI          FAIR      82  69  64 N6        30.06S                  
WEST KENDALL   FAIR      80  73  79 N5        30.06R                  
HOMESTEAD      FAIR      80  73  77 N6        30.04S                  

STATION/POSITION SKY/WX   TEMP    WIND        PRES    WAVE   SWELL
                          AIR SEA DIR/SP/G            HT/PER HT/PER
                          (F)     (DEG/KT/KT) (MB)    (FT/S) (FT/S)
PORT EVERGLADES            82     330/  6/  9 1017.9S
VIRGINIA KEY               83 89   20/  3/  5 1017.4S
LAKE WORTH                 79 84  300/  6/  9 1019.3F
FOWEY ROCKS                82 85   70/ 15/ 17 1017.8F
SETTLEMENT POINT           83     140/  2/  3 1018.4S

$$